Theta_e
301 296 294 293 295 296 297 298 297 295 297 296 296 295 293 294 293 292 292 294 293 295 296 296 296 296 297 299 300 302 301 299 299 300 302 303 304 305 306 305 307 306 306 310 307 307 308 308 308 308 309 312 316 320 322 322 323 325 326 326 326 328 329 328 328 329 329 328 329 331 331 330 331 331 332 334 337 338 338 338 338 338 336 335 332 331
299 295 295 297 297 298 296 294 295 295 295 296 294 294 292 294 293 293 294 293 294 294 295 291 293 295 297 299 301 302 300 299 300 301 301 303 304 305 306 306 307 307 307 304 305 305 306 307 307 306 306 305 307 311 317 320 321 323 324 324 325 327 327 327 328 328 328 329 328 328 328 329 331 331 331 331 334 334 334 336 337 337 337 335 332 331
295 293 297 297 294 294 293 294 295 296 294 295 295 294 293 293 294 292 293 293 293 293 295 293 293 296 298 300 302 301 301 302 303 303 303 303 304 305 304 305 305 305 305 305 304 305 304 307 307 305 306 306 306 309 311 316 319 321 322 323 324 325 325 326 327 327 326 328 329 328 328 327 327 331 333 333 333 333 334 336 337 337 336 336 336 334
292 295 297 294 294 294 292 293 295 295 297 295 294 292 292 295 292 291 293 294 292 293 295 294 293 296 299 300 300 302 301 301 300 298 299 301 301 303 304 304 304 303 304 304 305 304 304 304 304 304 304 306 307 306 307 310 314 317 319 321 323 323 324 325 326 325 328 328 329 329 329 330 329 327 329 329 329 331 332 332 335 337 336 336 336 336
293 292 291 293 294 296 293 292 294 294 293 294 297 295 294 290 292 294 293 293 291 291 291 293 294 295 297 297 298 297 292 292 295 295 296 298 300 300 301 299 300 300 302 303 304 305 303 302 304 305 305 304 303 306 307 308 310 313 316 319 321 322 323 324 324 324 326 326 327 328 326 327 326 325 327 326 326 328 328 329 331 332 334 335 334 334
293 291 291 292 293 294 295 291 295 297 293 293 295 296 295 295 293 290 292 293 294 294 292 291 290 291 295 296 296 298 296 296 295 296 300 300 298 298 299 301 302 301 300 300 302 304 303 302 303 304 305 306 306 305 308 309 310 312 314 317 319 321 322 323 324 324 324 324 323 322 321 320 320 319 320 320 321 324 325 326 329 331 333 334 334 335
293 289 292 294 293 296 296 294 296 297 294 291 293 296 294 295 295 294 293 295 290 288 292 290 289 288 296 295 297 295 295 296 298 297 298 299 300 300 302 303 303 303 303 302 300 299 299 302 302 305 307 308 308 307 307 307 309 311 314 316 318 319 321 323 323 324 323 323 322 322 321 321 320 320 321 324 325 325 326 327 327 328 330 331 331 331
290 290 291 295 294 295 294 292 295 295 294 291 293 294 295 295 295 295 295 296 292 292 292 291 293 289 289 295 297 292 292 296 297 297 300 301 300 301 302 302 303 304 303 302 301 300 300 301 304 307 307 307 307 307 307 308 309 311 313 315 317 319 320 321 322 322 323 322 322 322 321 321 321 321 321 324 324 325 325 326 326 326 327 328 329 329
292 289 292 292 294 293 293 295 297 297 295 293 288 294 295 297 297 296 296 292 291 291 289 291 294 287 288 294 294 293 294 297 297 296 299 300 300 300 301 301 302 302 301 299 302 304 306 307 307 306 307 306 307 308 310 311 312 313 315 316 318 319 320 321 321 321 322 322 322 322 321 321 321 322 323 324 324 323 323 323 323 324 325 325 326 327
293 293 294 295 294 292 293 288 292 296 295 291 291 292 292 293 293 295 293 293 290 288 286 289 290 286 288 296 295 292 292 294 297 297 299 299 299 299 300 301 302 303 304 302 301 303 305 306 306 305 305 307 307 307 308 309 311 313 315 316 316 318 319 319 319 320 321 322 321 321 321 320 321 321 321 320 320 320 320 319 320 322 322 322 323 324
293 293 294 293 294 294 290 290 291 293 294 293 295 296 295 294 293 292 292 290 289 284 287 286 286 286 285 294 293 294 295 295 295 298 298 299 300 300 300 299 300 301 303 304 304 304 305 303 304 305 307 307 308 308 310 311 312 313 315 316 317 317 317 316 318 319 319 320 321 320 320 320 319 321 320 318 316 316 314 316 318 319 319 320 320 321
293 294 295 294 291 292 294 293 292 291 293 296 295 294 293 291 293 291 289 290 284 283 284 284 285 287 283 289 295 295 292 292 297 298 298 299 299 300 300 299 299 299 301 304 305 305 305 305 305 307 307 308 308 309 310 311 312 313 314 316 313 310 311 313 314 316 317 317 318 319 320 320 320 320 319 318 318 318 316 316 316 318 316 315 316 316
291 292 293 294 294 293 296 293 291 293 294 294 294 293 288 285 286 283 286 282 283 283 284 285 285 284 285 292 294 293 294 294 294 299 300 299 299 300 300 300 300 300 301 304 305 305 307 307 307 307 307 308 309 309 309 309 310 311 313 314 314 312 312 313 314 316 317 316 316 316 317 318 318 318 319 318 319 320 318 318 316 316 314 315 313 313
291 293 292 295 295 295 297 292 289 289 292 293 292 290 286 282 281 279 282 281 281 283 283 284 287 282 290 292 297 296 297 295 296 297 299 298 299 299 299 300 299 301 301 303 305 306 307 307 306 307 307 307 308 308 308 309 310 311 311 312 314 312 311 311 311 313 315 315 317 316 316 316 316 316 316 317 317 318 317 318 318 317 317 317 316 316
284 285 291 293 290 297 293 296 294 294 292 292 295 294 289 288 282 278 280 279 282 283 283 285 283 285 286 291 294 295 296 294 293 293 294 295 295 296 297 297 297 300 302 304 305 306 306 306 306 306 306 305 305 305 306 307 308 309 310 310 310 309 308 309 311 311 312 313 313 313 314 314 315 315 315 315 317 317 316 316 316 316 316 316 316 316
288 288 290 293 291 292 295 294 296 295 292 292 291 293 289 288 292 284 282 283 281 282 282 282 284 290 292 294 294 295 294 294 293 293 293 295 297 296 297 299 301 302 303 304 305 304 304 304 304 305 305 304 304 304 305 305 306 307 307 307 307 308 308 308 308 309 310 311 311 310 311 311 311 312 312 313 313 313 314 314 314 314 315 315 315 315
286 286 291 294 293 293 294 292 293 295 287 291 290 287 290 293 289 279 279 279 278 281 282 287 287 291 294 294 296 293 292 294 293 292 292 295 297 297 300 301 302 303 304 304 306 304 303 303 304 305 304 304 304 304 304 303 304 305 306 307 306 306 306 306 306 307 306 307 307 308 308 309 309 309 310 311 311 311 312 312 312 312 312 313 313 313
287 286 289 291 291 292 292 291 294 290 293 291 286 291 290 294 295 288 282 280 282 280 282 283 284 287 287 286 294 292 293 295 295 294 294 295 295 298 300 302 303 303 304 304 303 303 304 304 303 303 302 302 302 303 302 301 302 302 303 304 306 306 305 305 306 306 306 307 307 308 308 308 308 308 309 309 309 310 309 310 310 310 310 311 311 311
294 284 288 288 291 293 292 293 293 294 292 293 293 298 291 285 284 286 286 278 278 278 281 283 282 283 288 290 292 291 292 294 295 295 293 294 295 299 299 301 302 302 303 303 302 303 304 304 303 303 302 302 301 301 301 301 302 302 302 302 303 302 302 302 304 304 305 305 306 307 306 306 307 307 307 308 308 308 307 308 309 309 309 310 310 310
295 287 285 291 291 293 294 294 287 290 294 293 292 290 291 291 290 285 285 287 286 282 278 281 280 284 290 291 293 294 295 297 296 294 294 296 298 299 300 301 302 303 303 303 303 303 302 302 301 301 302 301 301 301 301 302 302 302 302 302 302 302 302 302 302 303 303 304 305 305 306 306 305 305 305 306 306 306 307 307 307 307 307 308 308 308
289 292 284 288 291 291 287 291 290 292 288 287 289 287 291 288 290 290 287 285 284 282 281 282 280 285 292 293 294 295 295 296 296 296 298 297 299 300 301 303 303 303 303 303 303 302 302 301 301 301 301 301 301 301 302 302 302 302 301 301 301 301 301 301 301 302 302 303 303 304 304 304 304 304 304 304 304 304 305 305 305 305 306 306 305 306
288 286 285 287 287 287 290 290 289 292 294 291 290 287 290 286 285 283 282 284 281 284 279 278 280 288 295 291 293 295 292 294 295 299 299 297 298 300 302 303 303 302 302 301 301 301 301 301 301 301 301 301 302 301 300 301 301 300 300 300 300 301 300 300 300 300 301 302 302 302 301 301 302 302 302 302 303 303 303 303 303 303 302 302 304 304
294 291 289 284 287 289 289 291 289 288 288 291 290 290 294 291 291 287 282 283 282 281 282 282 280 285 297 291 291 293 292 292 292 292 297 297 298 300 301 301 301 301 300 300 299 299 299 299 299 298 299 299 299 299 300 300 300 299 299 299 299 299 298 299 299 299 300 300 300 300 300 300 300 300 300 301 301 301 301 300 300 300 300 301 302 302
292 288 286 285 287 289 290 290 289 287 290 292 292 291 291 289 291 290 288 287 285 282 282 283 279 286 296 291 290 288 289 288 288 290 295 298 299 300 300 299 298 297 297 297 297 298 298 298 298 299 299 299 299 299 298 299 299 299 298 298 298 297 297 297 298 298 299 299 299 299 299 298 298 299 299 299 299 298 299 299 299 298 299 299 300 300
287 288 288 283 283 285 287 290 290 292 291 290 291 292 293 293 289 286 286 287 285 284 286 284 279 286 296 290 290 289 290 291 292 291 292 298 299 299 299 298 298 297 297 297 298 297 297 297 298 298 298 298 298 298 298 298 298 297 297 297 297 297 297 297 297 297 298 298 298 298 297 297 298 297 297 297 297 297 297 297 297 298 297 297 298 299
290 289 287 282 279 278 277 279 282 285 288 291 287 291 291 291 289 286 285 285 284 285 285 285 285 291 292 293 293 292 291 292 293 292 291 297 299 298 299 298 297 298 298 298 297 296 297 296 296 296 296 297 296 297 297 297 296 296 296 296 296 296 296 296 296 296 297 297 297 297 296 296 296 296 296 296 296 296 296 296 296 296 297 297 297 297
288 287 289 288 286 284 286 288 292 295 290 286 288 289 289 291 291 293 289 285 283 285 283 287 289 291 289 291 292 294 293 293 293 292 292 295 298 300 299 299 298 298 298 297 297 296 295 295 295 295 295 295 295 295 295 295 295 295 295 295 295 295 295 295 295 296 296 296 296 296 295 295 295 295 295 295 295 295 296 296 295 296 295 296 296 296
287 288 289 290 290 291 293 293 291 294 290 290 289 289 290 289 289 288 286 285 290 285 281 288 291 287 290 292 294 295 295 294 295 294 294 297 298 299 298 297 294 295 295 296 296 296 296 295 295 294 295 295 294 294 294 294 294 294 294 294 294 294 294 295 295 295 295 295 295 295 294 294 294 294 294 295 295 295 295 295 295 295 295 295 295 296
289 286 290 289 289 292 292 292 292 293 293 293 293 291 289 289 288 286 287 292 291 286 285 291 291 288 291 293 295 296 296 294 295 295 297 298 298 296 294 294 295 295 295 296 296 296 295 295 294 294 294 293 293 293 293 293 293 294 294 294 294 294 293 293 294 294 294 294 294 294 294 294 294 295 295 294 295 295 294 294 295 295 295 295 295 296
291 288 291 290 288 290 291 289 290 292 291 291 291 291 291 290 289 290 290 292 292 290 293 293 294 292 294 294 296 297 297 296 296 296 295 296 296 295 294 295 296 296 295 296 296 295 295 294 294 293 293 293 293 293 293 293 293 293 293 293 293 293 293 294 294 294 294 293 293 293 293 293 293 293 294 293 293 293 293 293 293 294 294 294 295 295
290 288 291 289 286 287 290 288 289 290 290 287 290 291 290 290 290 290 291 292 292 291 293 294 290 291 296 297 297 297 295 295 295 294 295 297 297 295 294 295 296 296 296 296 295 294 294 293 293 293 293 293 293 293 293 293 293 293 293 293 293 293 292 293 293 293 293 292 292 292 293 292 292 292 292 292 292 292 291 292 292 292 292 292 292 293
290 287 289 287 285 285 289 287 288 288 287 286 287 287 288 288 287 289 288 292 291 289 290 290 288 289 295 296 297 295 293 294 295 296 296 297 297 296 295 296 296 296 295 294 294 293 292 292 292 292 292 292 292 292 292 292 292 293 292 292 292 292 292 293 292 292 292 292 292 292 291 291 291 291 291 291 290 290 290 290 290 290 291 291 290 291
288 288 285 286 284 284 285 285 285 286 285 282 283 287 290 290 291 292 293 294 294 294 289 287 288 295 294 295 294 294 293 294 294 296 296 297 297 296 296 296 297 296 295 294 292 292 292 292 292 292 291 291 292 292 291 292 292 291 291 291 291 292 292 292 291 291 291 291 291 290 291 290 290 290 290 290 289 288 288 288 289 289 289 289 289 289
288 288 288 289 283 284 279 283 285 282 276 278 291 295 293 290 290 289 290 292 294 295 292 295 295 296 295 295 295 294 294 295 296 297 299 299 297 296 297 297 296 296 294 293 292 292 292 292 292 292 292 291 291 291 291 291 291 291 291 291 291 291 291 291 291 291 290 290 290 290 290 289 289 289 289 289 288 289 288 288 288 288 289 289 289 289
287 287 288 286 285 281 280 283 281 276 278 290 296 297 295 294 294 292 293 293 294 294 295 294 295 296 295 297 297 298 297 296 296 295 295 295 298 297 296 295 295 294 293 292 292 292 292 292 291 291 291 290 290 290 291 291 290 291 291 291 291 291 290 290 290 289 289 289 289 289 289 288 288 288 288 288 287 287 287 287 287 287 287 288 288 288
287 288 287 284 286 283 280 282 276 277 287 290 291 292 295 295 294 293 291 294 294 294 295 294 295 296 296 296 296 298 297 295 293 292 293 292 295 298 295 294 294 293 292 292 291 291 291 291 291 291 290 290 290 290 290 289 290 290 290 290 290 289 289 289 288 288 288 288 288 287 288 287 287 287 287 286 286 286 286 286 286 286 287 287 287 287
292 289 289 285 287 281 281 282 282 287 286 290 291 288 291 288 289 289 286 289 294 294 294 294 295 296 297 296 295 293 293 294 295 296 292 292 291 294 296 295 294 293 292 292 292 292 292 291 290 290 289 289 289 289 289 289 289 289 289 288 289 288 287 287 287 287 286 286 287 286 286 286 286 285 285 285 285 284 285 285 285 286 287 286 286 286
293 288 290 287 283 287 282 279 280 281 278 285 294 294 295 295 296 296 291 288 296 296 296 295 294 295 296 293 293 292 295 293 292 294 294 290 291 292 292 292 292 291 291 291 290 290 290 290 289 289 288 288 287 287 288 288 288 288 287 287 287 287 286 285 285 285 285 285 285 285 285 285 284 283 283 284 283 283 284 284 285 285 285 285 285 285
291 293 290 287 286 283 282 280 279 277 281 289 293 294 296 295 296 295 289 285 294 296 296 295 295 296 296 293 292 293 293 289 291 296 293 290 290 290 289 289 290 289 289 289 289 288 289 288 287 287 287 286 285 286 286 286 286 286 285 286 285 285 284 283 283 283 283 284 284 284 284 284 283 282 282 282 282 282 283 283 284 284 285 285 285 285
288 288 289 286 283 284 283 281 280 283 284 291 291 293 293 294 297 291 281 282 294 296 296 296 295 296 296 295 292 293 292 289 292 296 290 290 290 290 289 288 287 287 287 288 288 288 287 286 286 285 284 284 284 285 285 285 285 284 284 284 284 283 282 281 282 283 283 283 283 283 282 282 281 281 281 281 281 282 282 283 283 283 283 283 284 284
286 286 287 284 285 285 284 283 285 285 292 291 290 290 291 296 294 285 280 289 294 294 295 296 295 296 296 293 293 290 294 295 295 291 289 289 288 288 288 288 287 287 286 286 285 286 286 286 285 283 283 283 283 283 283 283 283 283 282 282 281 279 279 280 281 281 281 282 282 282 281 281 281 280 280 280 280 281 281 282 282 282 282 282 283 283
285 286 286 287 284 284 285 282 283 287 292 290 287 290 293 292 284 283 292 292 295 294 293 295 294 295 295 294 293 295 292 288 290 289 288 288 287 287 286 285 285 284 285 285 284 284 284 283 283 282 281 281 281 280 280 280 281 281 281 280 277 277 278 279 279 280 281 281 281 281 280 280 280 279 279 279 280 279 279 280 281 281 281 281 281 281
285 284 282 283 286 286 285 283 282 278 288 292 291 291 290 288 291 295 292 289 291 292 293 292 295 294 295 294 295 291 289 289 288 288 288 287 286 285 284 284 283 282 282 282 282 283 283 282 281 280 280 279 278 278 277 277 277 278 278 276 276 276 277 278 278 279 280 280 280 280 279 278 278 277 278 278 279 278 278 279 279 279 279 280 280 280
291 284 284 286 289 282 283 280 282 289 289 294 295 290 291 294 295 292 295 290 291 292 293 293 293 294 295 294 290 289 289 288 288 287 287 286 285 285 285 284 283 282 281 281 280 280 281 280 280 279 278 277 276 276 275 275 274 275 275 275 275 276 277 277 278 279 279 279 278 278 277 276 277 277 278 278 278 278 277 277 277 277 278 279 279 279
291 288 290 286 290 287 286 289 290 289 291 295 295 295 297 294 292 291 292 295 292 292 291 293 293 291 293 292 290 289 287 287 287 287 285 285 284 284 283 282 282 281 280 278 278 278 279 279 278 277 276 275 274 273 273 273 272 272 273 274 275 275 276 276 277 278 277 276 276 275 275 275 276 277 277 277 276 275 275 275 276 276 277 278 278 278
288 289 287 288 288 291 288 291 292 289 290 292 289 289 289 290 291 291 293 294 294 294 292 293 292 291 291 291 289 288 288 287 286 285 285 284 283 282 282 281 280 279 278 277 276 276 276 276 275 275 273 273 272 271 271 271 271 270 272 273 274 275 276 276 275 275 275 274 273 273 274 274 275 275 275 274 275 274 274 274 274 275 275 276 277 278
288 286 289 288 288 288 286 293 289 291 291 291 292 288 286 285 289 289 289 291 291 291 290 292 292 291 291 290 290 289 288 287 286 285 284 283 281 280 280 279 278 277 276 275 275 275 274 274 273 272 272 271 270 269 269 269 270 271 273 273 275 275 274 273 274 273 273 272 272 273 274 273 273 273 272 272 273 273 273 274 274 274 275 275 276 276
286 288 288 286 286 287 288 291 289 285 285 287 287 289 291 290 287 285 286 287 287 287 288 289 290 289 291 290 290 288 287 286 285 283 282 282 281 280 279 277 276 274 274 273 273 272 272 271 271 270 270 269 268 268 268 269 270 272 273 273 272 272 271 271 271 271 270 271 272 272 272 271 271 271 271 271 271 271 272 273 273 273 273 274 274 274
288 290 285 287 286 289 288 286 284 288 289 288 286 287 290 289 286 284 285 286 286 286 287 287 289 290 290 290 289 287 286 286 285 284 282 281 279 278 277 276 275 274 273 271 270 270 270 269 268 268 267 267 267 267 268 269 270 272 271 270 269 268 268 269 269 270 270 271 271 270 271 270 270 269 269 269 270 271 272 271 271 272 273 274 275 275
287 286 287 288 285 285 287 288 287 287 287 291 290 288 286 285 284 284 284 285 286 285 286 286 284 285 288 289 288 287 285 284 283 283 281 280 279 277 275 274 272 272 270 270 268 268 267 267 266 265 265 266 267 267 267 269 270 270 268 267 267 267 266 267 269 269 269 269 269 268 268 268 268 268 268 269 269 269 270 272 274 273 273 273 275 277
287 289 288 286 286 285 291 292 290 292 292 291 293 291 287 285 285 284 285 285 286 286 286 285 284 284 285 285 287 287 285 284 283 282 280 278 276 275 274 272 271 270 269 268 266 266 265 265 264 264 264 265 266 266 267 269 269 267 266 266 266 266 266 267 267 267 266 266 266 266 266 266 266 267 267 267 268 268 268 269 270 274 275 275 274 276
Wind_Speed
2 8 9 10 11 10 12 8 1 3 4 4 3 3 4 5 2 3 0 3 1 2 9 8 9 9 11 11 10 8 3 5 8 10 9 8 7 7 7 8 7 8 8 2 2 4 5 6 5 4 4 5 7 9 10 11 12 13 12 11 14 11 13 12 12 11 12 12 11 11 11 11 9 11 12 11 11 11 12 12 10 8 8 10 12 11
3 8 10 6 3 8 6 6 7 7 2 9 7 6 4 4 4 1 2 1 0 3 2 0 5 11 13 13 12 8 4 12 10 10 10 10 9 7 8 8 8 6 1 2 5 6 6 4 3 3 4 4 7 8 9 12 12 11 12 12 12 10 11 13 13 12 12 12 11 10 11 11 9 8 9 10 9 10 11 12 11 11 8 6 7 9
7 11 6 4 4 9 6 4 2 5 6 2 5 4 3 4 3 2 1 1 1 2 4 2 6 9 11 10 10 9 10 9 7 6 7 6 7 7 7 7 7 5 7 4 7 6 5 3 3 3 4 5 7 6 8 9 9 10 11 11 10 10 11 11 12 12 12 12 11 11 8 9 9 9 8 8 6 5 7 8 9 12 13 12 10 9
7 9 4 6 7 10 4 2 6 6 3 5 4 5 7 3 6 5 4 3 1 2 2 1 5 9 9 8 11 10 8 6 3 5 7 6 10 11 9 4 4 7 7 8 7 7 5 3 3 3 4 5 5 5 6 7 9 8 9 10 10 10 10 10 11 11 11 11 10 11 10 8 9 7 8 10 11 10 9 10 8 10 13 13 11 11
4 3 3 8 6 11 10 4 9 7 7 1 3 3 3 3 4 3 4 3 2 1 2 3 6 9 5 7 7 3 0 3 5 4 6 7 8 8 8 8 8 11 9 9 8 8 5 5 5 4 2 2 4 6 7 7 8 6 10 10 10 9 10 9 10 11 11 9 9 7 1 2 1 2 6 7 9 11 12 11 10 10 9 8 8 8
1 1 2 8 5 2 7 6 7 8 6 4 5 5 3 6 7 3 7 7 4 4 3 2 4 4 0 4 6 2 3 2 2 3 4 2 3 3 5 6 4 6 7 9 9 5 3 4 4 3 2 4 5 5 6 6 7 7 7 8 9 8 8 9 10 10 10 10 11 8 8 9 10 10 10 12 12 10 12 12 10 10 9 9 9 9
1 2 4 8 10 7 7 7 6 4 5 4 5 5 2 5 7 8 7 4 3 3 2 3 6 3 1 3 3 1 3 8 2 3 4 2 2 2 3 4 4 4 5 6 7 6 6 5 3 3 2 2 3 3 3 4 5 7 6 7 8 7 7 8 8 10 10 11 10 12 12 11 10 10 10 9 8 9 8 9 11 10 10 12 12 12
4 5 3 2 7 7 6 7 7 10 5 7 3 3 6 9 10 9 9 3 2 3 1 1 2 4 5 6 2 0 4 6 5 2 0 1 2 3 3 4 5 4 4 4 4 3 3 2 2 2 1 1 1 1 2 3 4 7 7 7 8 7 7 7 8 11 11 10 11 11 12 10 11 11 9 8 8 8 8 8 9 8 9 9 10 10
4 6 5 8 5 6 10 3 5 7 6 1 0 2 5 4 6 7 4 3 2 1 3 3 1 3 5 3 3 2 5 6 5 2 1 2 2 3 4 4 4 4 3 2 1 1 2 2 2 1 2 2 1 1 1 3 4 4 5 6 6 6 6 6 9 10 11 10 10 10 10 10 9 9 8 7 6 7 7 9 8 8 9 8 9 8
2 3 7 4 9 9 3 2 1 4 6 0 4 6 6 5 6 2 3 4 1 2 6 6 1 4 10 2 3 2 2 7 4 4 3 1 2 2 3 4 4 3 2 0 1 1 1 2 2 2 2 2 3 2 2 2 2 3 3 4 5 5 4 5 8 9 10 10 9 9 10 10 9 8 7 5 5 6 6 6 7 8 8 8 8 7
1 1 3 0 3 3 6 5 1 3 5 11 6 10 6 6 3 2 4 1 1 4 3 4 2 2 5 2 5 4 5 3 3 3 3 2 2 2 1 2 3 3 3 2 1 2 3 2 3 2 4 4 3 3 3 3 3 3 4 4 5 4 4 5 6 7 8 8 8 8 8 9 9 8 8 6 6 5 5 6 8 7 7 7 7 7
2 2 2 1 1 4 2 8 7 2 6 6 3 5 8 4 1 2 1 1 3 4 3 3 1 2 7 3 3 2 1 2 4 8 8 7 5 3 2 2 3 3 2 1 2 4 5 6 5 4 5 5 4 4 4 3 3 3 3 4 5 4 4 4 4 5 6 5 6 6 7 8 8 8 7 8 8 8 8 8 8 7 6 6 6 6
3 3 2 2 3 2 6 10 4 2 2 1 6 8 6 3 1 3 2 4 7 4 2 2 2 2 12 9 4 2 3 3 6 4 8 5 5 3 2 3 2 2 1 2 3 4 4 6 6 7 6 6 5 5 4 4 3 3 3 5 6 5 4 4 5 6 6 6 6 6 6 6 6 7 8 8 8 7 7 7 7 6 6 6 6 6
2 4 1 1 2 5 5 9 6 4 6 5 11 8 6 4 4 5 3 2 3 1 1 1 1 5 5 7 13 14 7 3 3 5 1 2 2 2 3 3 3 2 1 1 2 3 4 4 4 5 5 5 4 4 4 3 3 3 3 2 3 4 2 2 2 3 4 5 5 5 6 6 6 6 7 7 7 7 6 5 6 6 6 6 7 7
5 4 7 10 5 5 3 2 7 6 13 7 3 6 3 5 4 5 4 5 3 1 2 2 1 4 3 2 3 3 2 0 1 2 3 4 2 2 4 4 3 0 2 1 3 3 4 4 4 5 4 4 4 4 4 3 3 2 3 2 4 4 2 1 2 2 3 3 3 3 3 4 4 4 4 4 4 4 5 5 5 5 5 5 5 5
6 0 3 5 2 1 6 3 2 6 6 2 1 3 1 4 1 1 1 1 2 2 2 2 5 2 4 3 4 2 3 5 2 3 3 6 3 1 2 2 3 3 3 2 4 5 4 4 4 4 4 4 4 4 3 4 3 3 3 3 3 3 3 2 1 1 1 0 0 1 2 3 3 3 3 3 3 4 4 6 6 6 5 4 5 4
3 6 3 1 1 1 1 2 1 1 7 5 4 4 1 4 9 6 2 1 2 1 3 2 5 5 5 9 3 3 2 4 3 3 3 5 1 3 2 4 5 5 4 4 4 5 5 4 3 4 4 4 4 4 4 4 3 3 3 3 5 4 4 3 2 2 1 1 1 1 2 2 2 3 3 3 3 4 5 5 6 5 5 6 6 4
8 3 3 1 3 2 1 2 2 5 3 7 3 6 3 1 1 1 2 1 0 4 2 3 6 6 1 3 3 3 5 5 6 5 5 2 2 3 4 5 7 6 5 4 4 3 3 4 5 5 4 4 5 5 5 5 3 3 3 3 4 4 5 4 3 3 2 1 1 1 1 1 1 1 1 2 3 3 3 4 4 5 5 4 5 5
4 3 1 2 1 2 1 2 4 2 2 2 0 5 5 3 4 1 1 2 3 2 3 4 3 5 6 7 2 4 7 8 8 6 4 5 5 6 6 6 6 5 5 5 5 3 3 3 4 4 6 5 6 6 5 5 4 5 5 5 5 6 5 4 3 3 3 2 2 1 2 3 3 3 3 2 3 3 3 3 3 4 5 5 5 5
1 3 1 2 2 0 2 2 7 4 1 3 2 3 3 2 1 5 3 0 1 3 0 2 3 5 8 7 4 3 10 10 9 6 7 8 8 8 8 8 8 7 6 5 4 3 3 4 4 4 5 6 6 6 5 5 5 7 5 6 6 5 5 5 6 4 4 4 3 3 3 4 4 3 3 3 3 4 3 2 3 4 4 4 4 5
4 2 2 2 2 2 5 5 9 10 9 4 4 6 2 1 2 2 2 2 3 2 3 3 3 3 4 7 11 13 3 6 8 9 6 7 7 8 10 9 8 7 6 5 4 4 4 4 4 5 4 4 5 5 5 5 6 6 6 7 7 8 7 8 6 5 4 3 4 5 6 5 4 4 3 3 3 4 3 2 2 3 4 5 5 5
3 2 4 5 4 7 2 4 2 4 2 3 7 10 11 9 5 5 5 3 0 3 3 3 6 1 2 3 8 4 1 3 5 6 7 6 7 8 7 6 6 7 4 4 4 4 4 4 5 5 5 4 5 6 7 5 5 7 8 6 6 7 7 6 6 5 5 5 5 6 6 6 4 3 3 3 2 3 2 1 2 3 3 4 4 4
2 3 5 5 4 4 1 1 1 1 1 1 1 3 1 2 1 4 7 4 1 0 3 0 2 4 2 1 1 1 2 2 1 2 2 6 7 8 7 7 4 3 4 4 4 4 4 4 4 4 5 6 6 5 5 6 6 6 7 6 6 7 7 6 5 5 6 6 6 6 5 4 3 3 3 2 2 2 2 2 2 2 3 3 3 3
3 3 4 2 2 2 2 2 2 1 1 2 4 1 4 10 9 5 2 3 5 3 2 1 2 4 1 1 1 2 2 2 2 2 4 6 7 6 8 8 6 6 4 3 3 3 3 3 3 4 5 5 5 5 6 5 5 5 6 6 6 8 8 7 7 6 6 5 6 5 5 5 4 4 4 3 3 4 4 3 3 2 3 3 3 4
5 4 6 4 2 1 1 1 0 1 0 5 6 6 6 3 7 2 4 0 2 7 6 6 6 8 3 1 1 2 2 3 5 5 5 9 8 7 7 5 4 5 5 5 5 5 4 3 4 4 4 5 4 4 5 5 6 6 6 6 6 7 7 7 6 6 6 6 6 6 6 6 5 5 5 5 4 5 4 4 3 2 2 3 3 3
6 5 10 6 7 7 7 8 9 7 12 5 1 3 8 10 9 6 5 4 8 2 5 5 8 7 3 1 3 3 2 4 3 2 4 2 7 9 7 6 6 6 6 6 6 5 5 4 3 4 4 4 5 5 5 6 5 5 6 8 7 7 7 7 5 5 6 6 6 6 7 6 6 6 6 5 5 5 4 4 4 3 3 3 3 3
3 2 8 12 13 11 11 12 9 6 6 6 12 17 16 14 12 5 3 2 8 4 7 11 14 2 5 5 5 5 6 9 6 5 9 10 8 4 4 5 6 5 6 7 7 5 5 5 4 4 4 5 5 5 5 5 6 6 6 8 7 6 5 4 4 5 5 5 6 6 7 6 6 6 6 6 5 5 4 5 4 4 4 4 3 4
2 4 8 10 12 11 8 5 3 12 15 18 19 14 12 12 11 11 10 12 7 7 7 10 11 8 10 8 9 8 5 3 5 8 8 8 10 10 8 5 4 4 4 4 5 6 6 6 5 5 5 5 5 5 6 6 5 5 5 5 5 5 4 3 4 4 4 4 5 6 6 5 5 5 5 5 4 4 5 5 5 5 4 4 4 4
5 8 7 8 12 12 3 4 6 7 9 8 8 9 12 13 13 14 15 16 9 10 13 18 17 16 14 12 9 10 8 10 12 15 13 10 7 6 6 7 7 7 7 7 6 5 6 6 6 5 5 4 5 7 6 5 4 3 3 4 4 4 4 3 3 3 4 5 6 6 5 4 4 4 4 4 4 5 6 5 5 4 4 4 4 3
4 7 7 9 12 13 7 5 3 8 7 5 9 11 13 13 14 18 17 16 13 14 15 16 5 17 12 11 11 10 7 3 1 5 6 9 12 10 6 7 9 9 8 8 7 6 6 7 6 6 5 5 5 6 5 4 3 2 2 3 4 4 2 1 2 3 4 5 5 4 4 4 4 4 5 5 6 7 7 6 6 6 5 5 5 5
6 4 10 8 8 12 8 3 3 4 7 10 6 7 10 12 16 19 19 19 14 16 14 11 2 11 7 9 9 3 5 5 6 7 10 11 11 11 10 9 8 9 8 7 7 7 6 6 6 6 5 4 5 6 4 3 2 2 3 3 4 4 2 2 4 5 5 5 5 5 5 5 5 5 6 6 6 6 7 7 6 6 6 6 6 7
5 2 2 5 8 10 7 10 6 4 1 2 5 8 11 13 13 13 14 15 15 17 19 14 7 13 6 13 7 4 5 7 9 10 9 8 9 10 12 10 9 9 9 9 7 7 6 7 7 7 6 5 5 5 4 3 3 3 3 4 4 4 2 3 4 5 5 4 4 4 4 4 4 4 5 5 6 6 6 5 4 4 6 6 5 6
6 4 4 5 8 11 1 3 6 5 2 3 8 13 18 18 17 16 14 12 11 15 14 9 16 14 10 11 10 10 8 9 8 9 7 9 10 12 13 11 10 9 10 10 10 8 7 7 7 7 6 5 4 4 3 1 1 3 3 5 4 3 3 4 4 4 3 3 2 3 3 4 4 4 4 5 6 3 4 3 3 3 4 4 4 5
4 7 4 5 9 5 3 4 5 5 11 14 10 18 17 18 18 13 11 15 15 13 11 14 11 5 12 9 12 12 14 13 13 13 11 10 11 11 9 7 9 10 9 9 9 9 9 7 6 6 6 5 4 3 3 1 2 3 3 3 3 4 3 3 3 3 3 3 4 4 5 6 6 6 6 6 5 6 5 5 5 5 5 5 5 5
10 9 4 1 3 2 2 5 5 12 12 13 2 4 16 16 14 15 14 17 14 13 12 13 12 8 11 10 12 12 14 12 2 4 7 6 6 8 11 10 11 12 12 12 11 10 9 9 8 8 6 5 4 3 2 2 2 3 4 3 4 4 4 4 4 5 5 5 5 6 6 7 7 7 7 7 5 5 5 5 6 6 5 5 5 6
8 8 3 0 2 4 2 6 9 10 4 1 0 1 1 8 10 12 16 15 14 15 15 17 17 15 11 9 7 3 1 3 1 2 4 2 3 9 11 10 12 12 13 11 12 10 10 9 8 8 7 5 4 3 2 3 2 4 5 4 5 5 5 4 5 5 5 5 6 6 6 6 6 7 7 7 6 6 6 6 6 7 6 6 6 6
11 6 5 5 3 5 5 10 6 7 7 4 6 6 13 12 12 14 11 14 14 10 12 15 18 16 9 8 5 2 3 3 2 6 3 2 4 5 10 10 13 11 11 10 9 9 8 8 8 7 6 5 3 3 4 4 4 4 5 5 5 5 4 4 5 5 5 5 6 6 6 7 7 8 8 7 8 8 8 8 9 7 6 7 7 7
4 9 7 10 5 3 4 2 2 4 11 11 9 5 1 3 11 14 13 13 10 15 16 17 18 17 11 8 7 6 5 4 6 10 7 4 4 7 7 9 9 10 10 10 9 8 8 7 7 6 6 6 5 5 5 5 4 4 5 5 4 5 4 5 5 5 5 5 6 7 7 7 8 8 8 8 9 9 9 8 7 6 7 8 10 9
4 3 1 6 2 4 3 6 6 9 13 10 4 8 8 8 10 7 5 11 10 13 15 16 18 15 10 11 8 8 6 7 10 11 7 9 9 8 13 10 11 10 10 9 10 11 9 8 8 7 6 6 8 7 6 4 4 4 5 5 4 4 5 6 6 6 6 7 6 6 7 6 7 7 7 8 8 8 10 9 8 8 7 7 8 9
3 2 3 5 3 4 6 9 9 4 8 4 8 6 9 10 12 10 7 9 17 10 12 14 16 11 9 13 12 12 12 9 14 3 10 11 12 10 12 15 13 11 10 9 8 8 10 9 8 6 7 8 7 6 5 3 4 4 5 4 4 5 6 6 6 6 6 6 7 6 6 6 7 7 8 9 9 8 8 8 8 8 9 9 8 9
5 2 5 9 9 6 7 4 2 4 5 2 4 4 7 13 14 11 13 8 5 12 14 12 12 15 15 11 12 10 13 5 4 12 13 14 15 12 9 10 11 11 12 10 9 8 7 6 6 7 7 7 6 5 4 3 3 4 5 4 5 6 5 5 5 6 6 6 7 7 8 7 7 9 9 8 9 9 8 8 9 9 9 10 9 9
5 5 3 4 7 10 9 9 7 4 3 5 2 8 10 9 8 13 7 2 7 6 2 10 15 11 8 14 12 10 5 6 11 12 14 12 13 13 12 12 11 10 8 8 8 8 7 7 8 8 8 7 6 5 5 3 4 4 4 5 6 6 5 6 6 6 7 7 7 7 8 8 8 8 8 8 8 9 9 8 8 8 8 8 9 11
12 10 9 10 5 0 1 4 4 10 4 10 14 4 5 6 3 3 4 1 2 1 5 5 6 6 9 10 6 8 9 11 14 14 13 13 14 15 14 13 12 12 11 9 7 5 6 7 8 7 7 6 6 5 4 4 5 4 4 6 6 5 6 6 7 7 6 7 7 7 8 8 9 9 7 8 8 9 10 9 9 10 9 9 10 10
11 6 4 6 8 7 11 12 9 1 6 11 15 9 6 7 2 2 4 2 1 2 4 4 4 5 7 11 10 9 11 13 10 13 13 11 12 12 10 10 10 10 8 7 6 6 6 8 7 7 7 5 5 5 5 5 5 5 5 6 6 5 5 6 6 6 6 6 7 8 8 8 8 8 7 8 9 9 10 10 9 10 8 7 8 9
9 11 8 9 9 8 6 9 2 3 10 9 3 2 9 4 2 2 1 2 6 6 4 3 7 5 6 11 10 13 11 11 15 14 16 14 13 12 12 11 10 9 8 8 7 5 4 6 8 7 6 5 5 5 5 5 5 5 5 5 5 4 4 5 6 5 6 7 8 8 8 8 8 7 7 7 8 9 9 9 9 9 8 7 7 8
5 1 1 2 3 1 2 3 1 0 2 4 1 1 2 2 1 1 2 2 4 3 7 6 8 7 8 10 13 7 11 14 15 11 11 12 11 10 10 10 9 8 8 8 7 5 6 6 6 7 7 6 5 4 5 5 5 5 4 4 4 4 5 7 7 7 8 8 8 8 8 9 8 7 7 8 7 7 7 8 9 9 9 8 8 8
2 1 1 3 1 8 9 10 11 6 4 5 5 2 1 1 3 1 3 3 2 2 3 2 6 10 12 10 12 14 13 14 14 11 11 10 10 10 10 10 9 8 8 7 6 6 5 5 5 6 5 6 4 4 5 4 4 4 3 4 6 8 8 8 8 8 7 7 8 7 7 8 7 8 8 7 7 7 7 7 7 8 9 8 8 8
4 3 2 2 3 9 7 3 0 2 2 2 2 3 5 5 4 3 1 1 2 3 3 5 7 8 10 9 9 14 15 13 15 14 11 10 10 10 9 9 10 8 7 6 6 5 5 4 5 5 5 5 4 4 4 4 4 6 7 9 10 9 8 7 6 6 7 7 6 6 7 7 9 9 8 7 7 8 8 7 7 8 9 9 8 9
1 8 5 6 6 3 6 2 1 1 2 5 5 7 6 5 5 2 2 4 5 8 7 5 4 8 10 11 12 11 15 11 9 13 13 10 10 9 9 9 8 8 8 7 5 4 4 4 5 5 5 4 4 4 5 6 6 7 9 8 7 7 6 5 5 5 5 6 6 6 6 7 7 7 8 9 8 7 7 8 9 10 11 10 8 8
2 6 2 4 5 8 11 8 8 2 3 7 11 14 12 6 6 6 4 5 6 9 8 10 6 2 3 5 11 14 15 13 11 11 11 10 10 10 10 9 9 9 8 6 5 5 6 6 6 5 4 4 4 5 5 5 5 7 6 5 5 4 4 5 4 4 5 5 5 6 7 7 7 7 8 8 9 10 11 10 13 13 12 14 15 18
10 7 5 6 7 8 11 7 10 10 6 3 5 6 9 9 9 10 11 9 8 7 11 14 11 6 7 5 3 8 12 14 14 11 10 8 9 8 9 10 9 8 7 6 6 5 5 5 5 5 4 3 3 3 3 2 4 5 5 5 4 5 4 6 5 5 5 6 6 7 8 7 7 7 8 8 9 9 11 14 12 13 18 21 24 26
Wind_Direction
329 171 187 194 193 181 188 201 271 65 198 129 109 163 174 176 122 22 76 55 290 207 225 228 246 269 271 262 262 266 170 233 251 260 253 250 251 250 244 236 232 227 240 79 273 248 241 240 235 226 222 220 217 216 212 208 210 210 209 205 214 210 215 219 218 217 218 220 223 222 221 222 228 234 238 237 227 221 220 219 222 222 213 211 204 209
194 203 208 191 164 172 143 94 112 89 114 170 174 191 177 231 181 135 126 65 53 237 193 55 258 260 260 264 262 258 249 259 237 234 241 245 241 241 241 248 239 243 229 237 251 233 223 219 201 220 224 216 218 216 210 213 212 210 209 210 211 207 208 215 218 218 218 221 221 222 225 228 227 221 219 230 242 246 243 237 224 222 217 207 207 208
192 213 193 111 92 87 90 116 96 136 138 111 193 180 195 197 56 122 108 130 58 215 238 135 257 256 252 256 257 239 239 249 242 239 249 252 251 246 241 247 257 259 260 237 249 249 242 214 209 205 210 215 225 220 209 215 210 207 207 212 209 206 204 209 213 217 220 222 223 224 230 229 233 230 228 224 225 223 236 231 222 224 227 225 217 207
199 217 113 115 133 122 96 134 119 93 91 156 138 170 205 107 184 190 167 163 31 292 340 289 288 275 263 250 253 245 233 255 302 292 269 256 257 255 255 272 284 275 270 260 248 251 225 223 238 213 215 213 204 211 212 207 207 207 210 209 205 206 203 206 208 215 221 222 223 223 232 232 234 239 242 248 248 247 242 237 233 235 233 237 243 234
182 40 25 142 171 160 156 172 165 175 189 283 228 181 149 155 225 331 134 150 152 182 272 243 261 267 225 250 244 147 103 273 265 264 245 235 241 267 290 281 249 254 257 265 260 248 233 239 233 218 200 177 209 208 208 199 201 203 207 204 201 202 201 204 202 207 217 214 215 215 151 150 179 252 239 237 238 238 241 248 241 239 237 226 221 220
186 54 148 129 145 91 128 169 201 181 207 181 235 217 191 188 154 107 122 152 188 201 75 336 272 254 135 240 249 309 329 251 156 289 265 239 252 247 263 264 255 240 245 251 257 256 257 260 268 258 227 209 206 206 204 201 204 201 200 200 198 202 200 201 197 200 208 208 210 195 199 208 219 230 223 227 230 231 234 236 238 238 230 227 223 222
76 74 211 156 158 156 170 187 189 209 199 186 210 178 203 162 133 139 155 206 195 226 86 319 241 260 91 279 173 10 320 289 235 243 273 306 309 281 279 290 283 271 255 244 255 262 254 242 240 216 187 192 199 182 162 192 203 200 199 193 193 196 196 195 198 199 202 205 207 207 209 212 214 222 230 230 237 241 241 241 243 245 248 249 250 251
122 128 126 92 132 157 166 198 189 191 172 214 58 148 120 137 143 168 160 229 40 54 130 268 338 271 288 258 69 50 274 266 267 192 260 3 349 341 321 317 305 293 268 265 263 256 242 240 229 171 97 176 115 103 157 170 179 187 190 185 188 191 189 186 195 197 200 201 204 207 211 215 223 227 239 237 239 239 247 245 244 246 250 248 245 248
138 143 186 152 174 164 198 172 117 197 193 249 99 288 137 149 128 144 157 121 44 282 222 143 294 269 246 262 102 2 271 241 212 152 104 62 27 14 360 354 340 323 306 255 214 140 122 139 142 134 105 51 64 78 122 140 156 167 168 175 178 181 181 182 195 196 199 203 205 207 211 219 227 234 238 243 244 239 239 243 245 245 245 245 243 239
324 195 196 163 161 192 73 17 271 180 180 170 132 95 99 90 71 77 128 116 156 217 245 158 328 240 270 193 248 58 295 264 206 130 117 79 41 6 2 13 19 28 44 125 290 328 82 86 71 50 57 77 49 43 42 60 97 123 140 155 163 171 179 183 194 197 199 203 206 209 214 219 226 228 240 245 241 243 244 243 243 242 243 245 243 239
305 347 301 46 229 50 119 45 67 32 66 127 185 110 91 61 60 64 45 47 159 240 232 60 343 279 290 201 222 176 214 233 112 129 134 149 163 113 59 19 14 19 28 47 84 88 84 64 74 100 96 86 80 65 78 88 100 115 137 148 151 150 167 179 188 195 199 204 210 216 220 224 232 236 239 239 236 227 227 241 245 243 247 247 245 245
84 86 166 46 12 137 124 92 41 83 121 148 151 132 112 64 110 96 71 304 220 239 81 351 349 289 216 248 233 251 8 233 173 154 148 137 114 89 43 23 20 17 19 30 104 102 109 110 104 115 106 104 97 94 88 84 92 113 125 139 129 140 153 158 166 187 196 202 213 222 225 230 236 240 240 243 247 238 234 235 241 241 244 244 247 248
98 135 52 45 262 202 160 103 77 101 245 179 145 158 156 153 151 191 184 214 210 239 60 360 256 224 238 249 354 292 260 231 242 170 142 138 127 101 42 16 6 353 351 82 90 106 106 112 122 116 118 118 109 102 105 104 113 122 135 152 147 146 161 160 172 183 192 197 207 215 224 235 245 247 247 251 253 252 247 242 237 236 241 246 244 242
159 140 125 99 157 232 233 145 135 169 200 188 171 167 165 161 177 214 182 349 333 24 346 77 6 271 309 283 249 248 228 208 213 248 306 261 279 18 342 342 350 2 13 66 83 85 97 101 97 91 95 92 91 84 84 89 94 98 97 93 116 114 118 131 153 176 186 198 204 210 217 224 228 237 244 248 254 254 256 258 248 245 248 252 255 260
174 240 200 163 192 135 223 278 181 167 168 199 12 182 197 174 161 194 173 204 219 108 114 236 186 236 169 207 44 295 45 46 273 288 286 278 284 308 301 291 285 255 115 106 105 103 106 99 93 95 87 85 83 86 76 69 74 85 103 113 122 126 121 145 165 184 203 202 203 208 220 221 223 229 235 246 256 261 257 257 258 250 246 245 246 242
220 170 31 5 317 355 185 281 13 90 51 28 229 23 186 211 58 220 58 348 117 146 152 195 235 302 243 37 246 229 270 272 209 261 263 267 165 177 260 182 135 130 125 122 125 117 103 103 115 115 114 109 109 103 101 96 104 109 103 103 95 99 99 96 110 154 228 266 238 250 243 246 242 251 255 259 258 265 271 273 272 271 262 261 263 260
48 218 25 352 130 128 81 323 319 283 181 184 140 205 160 14 100 113 92 77 332 336 246 139 265 253 267 280 237 123 150 208 147 200 217 251 209 137 189 152 143 143 131 133 128 121 126 133 120 111 118 119 112 101 90 86 78 88 105 114 111 105 107 103 91 95 108 98 241 231 255 252 241 235 245 258 278 286 281 275 274 274 279 282 276 272
179 127 5 37 166 18 348 319 40 56 305 105 221 182 121 227 61 132 204 95 255 245 249 117 229 245 172 252 74 136 176 185 185 184 202 205 165 164 165 161 151 149 134 115 100 95 115 120 119 112 95 87 89 98 96 85 74 62 58 60 91 87 83 73 75 77 85 85 108 119 175 196 239 281 289 292 296 295 284 281 280 284 282 281 286 286
122 103 116 328 346 336 82 274 91 28 42 292 43 132 166 165 205 190 132 200 178 222 248 207 274 281 228 228 97 186 188 201 205 183 179 186 182 166 159 160 139 128 132 143 147 150 141 105 89 91 92 89 87 82 84 89 83 76 69 60 63 67 63 60 56 64 71 53 51 34 20 10 8 3 349 330 313 295 275 278 290 291 294 299 299 293
317 183 125 35 121 88 321 235 193 168 344 71 160 120 351 295 296 161 201 25 213 236 141 246 120 251 186 218 210 226 194 200 190 181 201 184 179 164 164 165 155 155 152 151 150 140 113 91 77 73 76 73 70 75 75 77 77 70 69 67 69 74 69 58 48 41 49 41 40 33 28 32 16 3 346 339 326 300 294 307 309 307 300 298 301 296
168 333 176 105 301 176 180 207 211 174 165 129 169 172 166 57 318 352 38 179 219 205 203 267 247 230 199 210 205 213 186 197 184 189 186 183 178 170 160 160 153 150 154 154 148 131 110 99 89 79 76 84 87 79 71 67 70 67 63 60 53 57 50 49 36 32 32 33 42 37 35 24 15 5 349 333 311 291 293 322 318 311 311 308 295 294
110 201 167 127 139 215 201 20 315 316 292 207 170 184 183 144 151 177 215 82 349 215 220 180 249 284 252 130 212 218 125 198 213 192 183 170 171 166 148 146 139 146 145 141 130 115 107 100 93 91 84 71 75 64 64 61 69 61 57 52 45 57 47 42 36 29 25 38 42 43 34 29 20 5 355 316 290 276 293 341 342 333 313 298 298 301
129 98 106 170 201 178 333 328 338 293 306 163 326 252 159 231 92 190 211 188 91 338 48 321 340 269 94 156 230 85 147 214 234 273 170 156 168 162 144 137 127 111 128 128 117 100 90 81 75 69 66 65 62 64 60 56 58 59 58 55 52 58 51 44 39 33 35 41 44 44 45 36 30 16 1 345 337 330 350 16 5 347 317 313 312 305
97 111 101 33 64 301 306 249 186 171 241 247 257 206 166 200 202 220 260 132 161 124 185 196 235 261 91 121 181 181 267 309 288 226 186 160 163 159 151 152 151 140 116 103 91 87 76 79 71 78 77 70 63 57 56 57 58 61 55 51 52 49 40 38 33 35 41 46 55 51 51 45 31 28 18 7 4 354 8 11 17 356 332 325 314 308
170 211 129 137 88 121 243 156 154 145 122 230 222 184 221 59 71 98 107 18 203 204 193 179 235 254 130 114 148 178 197 234 234 211 213 172 172 165 157 149 135 132 131 130 123 111 106 102 98 88 89 85 79 72 62 55 50 49 51 47 47 50 43 41 31 34 41 40 49 43 42 35 29 27 24 17 9 0 359 12 14 5 341 332 318 318
196 158 160 156 169 171 190 201 201 208 211 200 325 143 191 181 146 135 194 175 226 173 181 214 239 244 94 165 163 150 172 229 242 186 207 302 163 166 168 160 154 154 148 140 131 136 131 118 114 106 99 91 75 71 67 60 55 50 54 51 43 40 39 38 32 34 38 34 40 38 33 28 22 21 18 9 6 359 356 1 14 358 355 343 331 319
174 131 203 190 195 201 202 209 206 101 81 180 214 194 195 200 191 188 46 111 214 181 185 215 226 4 191 182 221 192 189 201 180 161 174 186 193 188 157 152 155 155 153 154 150 139 131 133 115 104 93 88 83 71 64 56 47 43 47 52 47 44 45 37 37 39 42 37 41 36 30 21 15 7 7 6 357 348 355 6 6 5 359 348 326 324
95 194 208 217 226 222 220 200 131 174 187 201 205 200 191 181 187 190 192 214 164 86 243 240 236 242 225 189 204 211 180 197 189 178 177 184 186 178 170 145 133 133 137 131 146 155 146 132 123 113 102 93 88 80 70 55 44 36 41 53 47 44 45 33 36 42 44 40 41 38 26 16 4 2 0 350 344 350 359 1 6 2 350 341 338 337
158 204 204 197 228 233 118 163 165 178 211 214 212 168 169 177 177 192 215 224 135 203 227 233 214 220 230 180 211 209 190 187 194 193 185 170 128 118 151 169 171 168 160 168 164 148 144 140 130 118 104 96 92 85 72 64 57 52 61 64 59 58 46 28 43 55 52 47 44 34 18 6 359 349 344 342 346 358 1 359 357 350 341 340 332 319
143 222 187 188 217 229 201 179 189 191 174 187 196 182 180 176 189 200 215 217 196 219 226 246 184 221 224 165 208 211 206 207 142 60 91 137 174 182 170 175 177 173 171 168 162 159 146 135 126 115 112 106 102 95 92 90 88 68 83 88 81 83 81 107 78 68 57 52 42 25 14 1 359 347 350 359 1 1 355 353 352 345 344 342 335 327
178 202 166 168 218 231 209 104 143 219 172 201 203 192 175 184 199 207 216 222 218 238 247 244 248 263 229 177 208 122 87 102 109 157 179 186 179 177 186 190 178 168 171 162 160 154 145 135 124 118 118 121 105 102 98 104 135 176 162 115 90 78 63 58 65 60 49 42 27 18 6 6 357 353 1 360 356 353 350 347 343 338 334 334 330 322
178 228 72 150 208 232 193 175 172 146 188 217 170 172 186 186 204 211 217 216 203 217 231 237 275 257 208 148 198 133 138 166 179 188 193 190 181 183 192 186 178 173 169 165 158 153 150 148 139 131 132 124 114 120 141 162 176 180 102 84 73 69 67 68 62 58 53 38 23 13 4 356 350 352 353 356 354 344 340 327 323 324 322 318 317 315
189 144 165 175 206 221 98 215 149 133 117 250 218 201 194 201 202 207 217 219 211 212 220 205 231 236 121 165 171 211 197 197 208 201 197 202 197 189 189 182 178 165 166 164 160 159 159 151 140 133 130 130 130 128 126 135 139 86 73 69 67 69 72 77 70 68 59 43 26 9 358 351 352 350 355 356 343 334 322 322 315 320 324 320 316 305
163 184 181 177 208 188 41 128 127 127 221 228 212 206 183 196 204 203 208 213 213 201 216 214 230 95 148 174 176 193 208 214 205 211 199 190 181 187 195 168 169 164 156 156 156 155 150 139 134 129 124 118 113 98 102 108 96 95 82 86 92 86 87 85 75 74 53 39 21 10 1 359 353 354 353 347 345 341 336 336 335 333 322 312 312 313
180 189 189 169 201 167 156 150 150 218 232 226 264 161 199 207 186 198 219 218 213 212 237 253 257 223 185 188 190 195 207 215 318 208 207 224 187 179 172 167 166 163 161 158 156 154 149 144 137 133 126 118 110 112 147 125 97 105 94 88 93 84 78 59 50 42 28 19 14 4 2 357 351 349 344 343 342 337 333 331 326 326 323 321 316 313
169 181 131 181 104 67 142 175 216 224 214 355 124 146 148 173 201 209 239 235 218 207 208 228 233 229 192 198 202 199 201 122 41 320 259 271 230 169 155 174 172 165 164 167 154 148 147 145 140 130 117 115 118 118 106 87 82 86 86 81 74 72 59 49 42 34 18 15 10 2 356 353 346 340 339 337 336 333 331 330 327 323 322 316 311 301
185 156 179 178 182 191 174 198 227 12 335 187 210 196 174 179 172 184 217 235 212 191 201 224 234 235 209 176 150 113 98 105 231 241 174 207 187 242 183 164 159 152 137 131 132 130 122 117 115 114 115 112 109 104 75 66 67 80 80 73 68 65 55 43 39 23 10 10 3 358 354 353 350 345 346 343 341 340 338 335 329 326 329 319 310 307
199 186 189 195 206 179 161 188 239 234 247 229 215 56 290 130 171 186 205 253 216 193 202 209 222 227 210 124 148 139 130 178 236 243 166 148 149 118 83 88 90 104 111 115 105 108 113 113 111 114 121 122 92 67 56 50 60 74 74 68 60 55 46 39 27 13 5 2 360 356 358 357 357 350 345 345 342 336 331 326 320 321 325 318 315 310
27 52 102 213 163 146 193 206 200 213 231 242 165 162 173 183 163 138 188 246 237 188 198 199 221 225 199 157 164 151 144 205 227 224 137 145 131 129 119 112 112 111 115 122 130 128 127 122 121 124 117 96 74 54 46 46 57 73 74 65 58 53 44 28 13 4 358 356 354 358 360 356 356 349 344 339 334 332 325 323 322 316 317 314 309 298
129 176 152 204 197 200 190 211 223 202 244 230 174 181 160 134 126 121 206 243 243 165 183 198 212 211 176 190 149 178 179 216 226 181 133 131 130 123 130 131 126 119 111 109 102 116 123 132 132 116 90 76 70 58 45 48 73 73 71 65 63 53 35 15 1 350 350 354 355 356 357 351 350 345 342 334 328 326 323 317 318 321 320 315 312 311
172 164 213 205 201 196 198 241 287 280 262 211 187 138 144 151 145 180 208 226 114 153 192 185 189 209 205 176 157 184 213 219 60 115 128 125 118 109 95 103 113 120 125 125 126 127 127 120 108 94 85 77 66 53 37 38 78 77 68 68 62 44 20 359 352 352 353 351 350 351 349 347 348 340 335 332 326 320 317 319 318 317 317 313 312 311
185 173 200 203 210 201 197 211 222 281 232 155 357 139 165 136 202 212 208 22 163 162 253 182 195 201 155 164 183 198 84 111 115 113 125 129 123 122 119 115 110 99 94 106 123 130 124 116 105 97 85 74 63 51 37 40 81 74 69 70 52 28 2 357 353 346 345 344 345 344 341 340 338 336 328 324 322 321 314 310 303 301 307 305 302 300
175 175 183 187 186 253 215 233 240 248 229 116 113 76 291 197 264 114 121 323 31 205 144 206 194 168 166 167 138 107 126 125 131 135 129 128 128 134 136 134 132 132 133 133 124 122 130 120 111 99 94 82 68 51 38 48 76 74 72 60 34 11 2 354 346 341 337 339 339 341 338 336 335 330 328 321 320 314 309 310 314 311 304 297 299 295
159 182 169 215 185 183 191 199 210 226 80 164 148 189 189 231 41 258 121 130 271 198 199 148 221 177 177 143 137 130 133 133 120 129 125 122 123 124 125 122 122 120 115 106 110 117 120 113 112 106 92 81 66 54 36 41 58 55 62 51 21 2 356 351 340 337 339 342 338 335 334 333 328 321 316 319 321 318 313 312 311 307 303 302 299 301
192 201 175 200 172 201 198 216 211 195 169 200 163 24 198 167 26 176 135 119 156 213 203 228 173 171 170 142 132 139 139 148 145 147 142 145 139 138 137 140 137 133 129 125 116 109 102 112 116 111 99 85 67 54 47 40 57 57 57 28 5 344 339 337 341 347 342 342 338 334 330 326 320 316 321 323 322 319 315 310 313 310 308 310 301 298
3 255 34 96 212 184 316 197 156 41 246 233 151 116 2 339 43 54 191 172 227 203 178 184 163 148 145 137 128 142 147 150 142 144 131 137 135 130 126 123 120 114 114 109 109 105 106 105 105 112 113 97 77 56 56 52 55 54 33 360 333 331 356 1 354 350 347 343 334 327 323 325 318 317 316 314 311 305 301 302 307 306 306 306 301 299
228 108 139 187 153 166 232 204 209 201 206 238 221 142 180 242 249 35 263 264 307 136 166 137 165 156 156 157 145 149 148 154 139 138 136 133 137 140 140 134 130 129 126 119 118 129 126 129 124 118 119 106 78 61 55 52 49 40 7 348 9 13 9 358 354 347 337 329 324 322 326 327 327 325 319 319 314 306 301 300 298 297 293 293 297 299
260 178 178 190 181 205 233 194 222 68 246 261 232 245 246 209 205 210 253 308 127 101 101 115 126 124 147 155 152 141 151 153 144 146 148 147 145 143 137 132 128 119 107 106 112 116 115 114 118 108 104 98 69 53 47 46 40 27 28 27 22 8 0 349 344 334 324 324 323 326 329 325 322 320 313 312 312 309 307 299 292 291 290 294 297 299
178 131 206 177 204 244 333 280 250 6 233 209 200 236 233 200 177 152 142 115 119 111 114 81 129 162 170 156 154 130 138 163 150 147 142 141 137 136 137 132 130 126 127 119 108 105 112 109 91 81 77 75 59 47 39 38 32 38 39 24 13 357 348 328 321 317 319 325 328 320 324 319 318 314 312 308 303 291 285 295 298 292 287 274 269 273
122 204 119 153 209 219 223 208 128 175 241 229 217 214 204 156 150 146 143 152 158 150 153 136 106 27 80 133 157 154 144 150 151 142 136 137 139 133 132 127 125 124 116 113 105 101 87 78 77 73 67 54 43 38 39 33 47 52 37 23 357 347 338 333 330 328 333 330 327 320 322 317 312 310 306 306 308 307 301 274 268 272 281 291 284 274
207 190 153 201 203 226 230 211 176 214 248 254 236 200 167 169 155 164 188 180 180 181 166 137 127 115 127 109 101 160 144 146 152 142 126 129 128 131 131 135 134 133 128 127 116 100 95 87 81 75 56 49 40 36 42 54 70 51 21 11 351 352 356 4 351 339 328 329 322 321 315 310 310 313 310 307 306 307 306 309 300 274 267 269 278 283